Regional Weather Roundup
Issued by NWS

Home | Current Version | Previous Version | Text Only | Print | Product List | Glossary On
Versions: 1 2 3 4 5 6 7 8 9 10 11 12 13 14 15 16 17 18 19 20 21 22 23 24 25 26 27 28 29 30 31 32 33 34 35 36 37 38 39 40 41 42 43 44 45 46 47 48 49 50
065
ASUS43 KMKX 060100
RWRWI

WISCONSIN REGIONAL WEATHER ROUNDUP
NATIONAL WEATHER SERVICE MILWAUKEE/SULLIVAN WI
700 PM CST MON DEC 05 2016

NOTE: "FAIR" INDICATES FEW OR NO CLOUDS BELOW 12,000 FEET WITH NO
SIGNIFICANT WEATHER AND/OR OBSTRUCTIONS TO VISIBILITY.

WIZ001-002-006>008-014>016-023>028-060200-
NORTHWEST WISCONSIN

CITY           SKY/WX    TMP DP  RH WIND       PRES   REMARKS
SUPERIOR ARPT  CLOUDY    35  33  94 E5        29.74R WCI  31
ASHLAND        CLOUDY    35  33  92 MISG      29.77F
HAYWARD        CLOUDY    35  30  82 SE12G21   29.72F WCI  27
SIREN          CLOUDY    35  32  88 SE7       29.69S WCI  29
CUMBERLAND     CLOUDY    32  32 100 SE13      29.70F WCI  22
RICE LAKE      CLOUDY    34  32  92 SE17      29.73F WCI  24
CHETEK         CLOUDY    33  33  99 SE6       29.75S WCI  28
LADYSMITH      CLOUDY    35  32  89 SE14G20   29.75F WCI  26
EAU CLAIRE     NOT AVBL
MENOMONIE      CLOUDY    36  32  87 E7        29.73S WCI  30
NEW RICHMOND   CLOUDY    36  31  82 S14       29.68S WCI  27
OSCEOLA        CLOUDY    37  31  82 SE12      29.71R WCI  29
$$

WIZ003>005-009-010-017-018-060200-
NORTH CENTRAL WISCONSIN

CITY           SKY/WX    TMP DP  RH WIND       PRES   REMARKS
MANITOWISH WTR LGT SNOW  32  32 100 SE6       29.83S WCI  26
ARBOR VITAE    CLOUDY    34  32  93 CALM      29.84F
WOODRUFF       CLOUDY    34  32  93 CALM      29.84F
RHINELANDER    CLOUDY    34  31  88 SE9       29.86F WCI  27
EAGLE RIVER    CLOUDY    33  30  88 S5        29.86R WCI  28
LAND O LAKES   CLOUDY    34  31  89 S7        29.87R WCI  28
PHILLIPS       CLOUDY    33  31  94 SE9       29.77F WCI  25
TOMAHAWK       CLOUDY    32  30  93 SE5       29.84F FOG     WCI  27
MEDFORD        CLOUDY    32  31  94 SE7       29.80F FOG     WCI  26
MERRILL        CLOUDY    33  32  98 SE7       29.85F WCI  26
$$

WIZ029-030-035-036-043>047-060200-
CENTRAL WISCONSIN

CITY           SKY/WX    TMP DP  RH WIND       PRES   REMARKS
WAUSAU         CLOUDY    33  31  92 SE7       29.85F WCI  27
MOSINEE        MOCLDY    32  32 100 SE9       29.87F FOG     WCI  24
MARSHFIELD     CLOUDY    33  30  88 SE15      29.82F FOG     WCI  23
STEVENS POINT  PTCLDY    31  31 100 SE6       29.89S FOG     WCI  26
WAUPACA        MOCLDY    35  32  90 CALM      29.92F FOG
WAUTOMA        CLOUDY    32  31  96 S7        29.92F WCI  26
WISC RAPIDS    MOCLDY    33  32  96 SE8       29.88F WCI  26
CAMP DOUGLAS   NOT AVBL
$$

WIZ011>013-019>022-031-037>040-048>050-060200-
NORTHEAST WISCONSIN

CITY           SKY/WX    TMP DP  RH WIND       PRES   REMARKS
ANTIGO         CLOUDY    31  31 100 S10       29.91R FOG     WCI  22
SHAWANO        CLOUDY    35  32  90 CALM      29.95R
OCONTO         CLOUDY    34  32  92 S3        29.95S
STURGEON BAY   CLOUDY    33  31  92 S7        29.97S WCI  27
GREEN BAY      CLOUDY    35  34  96 S5        29.95F WCI  31
MANITOWOC      NOT AVBL
APPLETON       CLOUDY    32  32 100 S6        29.92F FOG     WCI  26
CLINTONVILLE   CLOUDY    32  32 100 E6        29.92F FOG     WCI  26
OSHKOSH        CLOUDY    33  30  88 S6        29.93F WCI  28
$$

WIZ032>034-041-042-053>061-060200-
SOUTHWEST WISCONSIN

CITY           SKY/WX    TMP DP  RH WIND       PRES   REMARKS
LA CROSSE      CLOUDY    38  31  76 SE13      29.80F WCI  30
SPARTA         CLOUDY    35  32  88 E5        29.83F WCI  31
VIROQUA        CLOUDY    32  32  99 SE14      29.81F WCI  22
BOSCOBEL       CLOUDY    35  31  85 VRB5      29.87F WCI  31
PRAIRIE DU CHI CLOUDY    34  31  88 E8G16     29.84F WCI  27
PLATTEVILLE    CLOUDY    33  33 100 SE12      29.87F WCI  24
$$

WIZ056-057-062-063-064-067-068-060200-
SOUTH CENTRAL WISCONSIN

CITY           SKY/WX    TMP DP  RH WIND       PRES   REMARKS
REEDSBURG      CLOUDY    32  32  99 SE3       29.87F
BARABOO/DELLS  CLOUDY    32  31  94 SE8       29.89F FOG     WCI  25
LONE ROCK      NOT AVBL
MINERAL POINT  CLOUDY    34  34 100 SE14      29.87S FOG     WCI  24
MADISON        CLOUDY    32  30  92 S13       29.92F WCI  22
MIDDLETON      NOT AVBL
WATERTOWN      CLOUDY    31  31 100 S9        29.94F FOG     WCI  23
MONROE         CLOUDY    32  32 100 SE13      29.90F FOG     WCI  22
JANESVILLE     CLOUDY    34  34 100 S9        29.93F FOG     WCI  26
$$

WIZ051-052-058>065-066-070>072-060200-
SOUTHEAST WISCONSIN

CITY           SKY/WX    TMP DP  RH WIND       PRES   REMARKS
MILWAUKEE      CLOUDY    34  31  88 S8        29.98R FOG     WCI  27
WAUKESHA       CLOUDY    30  28  93 S6        29.97R FOG     WCI  24
MILWAUKEE/TIMM CLOUDY    32  28  86 S6        29.98F FOG     WCI  26
RACINE         CLOUDY    33  31  92 SW5       30.00S FOG     WCI  29
BURLINGTON     CLOUDY    32  31  97 CALM      29.97R FOG
KENOSHA        CLOUDY    33  30  88 S7        29.98S FOG     WCI  27
FOND DU LAC    CLOUDY    33  29  85 S8        29.93F WCI  26
SHEBOYGAN      CLOUDY    33  30  88 S5        29.96S FOG     WCI  29
WEST BEND      CLOUDY    32  32 100 SE3       29.95F FOG
JUNEAU         CLOUDY    31  30  96 SE7       29.95S FOG     WCI  24
$$

LSZ147-162-060200-
LAKE SUPERIOR

STATION/POSITION TIME  TEMP    WIND        PRES    WAVE
                       AIR SEA DIR/SP/G            HT/PER
                 (UTC) (F)     (DEG/KT/KT) (MB)    (FT/S)
DEVILS ISLAND    0000   38      80/ 14/ 16 1010.1F
PORT WING        0040   36      90/  7/ 13 1007.5F
SAXON HARBOR     0040   39     180/  3/ 12 1009.5S
$$

LMZ867-665-643>646-060200-
LAKE MICHIGAN

STATION/POSITION TIME  TEMP    WIND        PRES    WAVE
                       AIR SEA DIR/SP/G            HT/PER
                 (UTC) (F)     (DEG/KT/KT) (MB)    (FT/S)
CHAMBERS ISLAND  0040   37     180/  7/ 12 1013.9S
NORTHPORT PIER   0040   36     170/  2/  7 1014.2F
SISTER BAY       0008   36     200/  8/ 10   N/A
ALGOMA LAKESHORE 0006          240/ 11/ 14   N/A
KEWAUNEE LAKESHO 0024   34     210/ 11/ 15 1014.4
SHEBOYGAN LAKESH 0000   34     210/  9/ 10 1015.4F
PORT WASHINGTON  0040   35     210/  4/  6 1015.6F
MILWAUKEE LAKESH 0030   34     170/  8/  8   N/A
KENOSHA   LAKESH 0000   33     210/  4/  6 1015.6
$$

TC  - TEMPERATURE IN CELSIUS
VSB - VISIBILITY IN STATUTE MILES
WCI - WIND CHILL INDEX
HX  - HEAT INDEX





USA.gov is the U.S. government's official web portal to all federal, state and local government web resources and services.